owner,sensor,date,latitude,longitude,air_temperature,qcFlag 
ADCP,ioos:station:wmo:42395:1,2016-05-11T21:00:00Z,26.4040,-90.7920,25.7,11111222 
ADCP,ioos:station:wmo:42395:1,2016-05-11T21:20:00Z,26.4040,-90.7920,25.6,11111222 
ADCP,ioos:station:wmo:42395:1,2016-05-11T21:40:00Z,26.4040,-90.7920,25.6,11111222 
ADCP,ioos:station:wmo:42395:1,2016-05-11T23:20:00Z,26.4040,-90.7920,25.4,11111222 
ADCP,ioos:station:wmo:42395:1,2016-05-11T23:40:00Z,26.4040,-90.7920,25.4,11111222 
ADCP,ioos:station:wmo:42395:1,2016-05-12T00:00:00Z,26.4040,-90.7920,25.6,11111222 
ADCP,ioos:station:wmo:42395:1,2016-05-12T00:20:00Z,26.4040,-90.7920,25.7,11111222 
ADCP,ioos:station:wmo:42395:1,2016-05-12T00:40:00Z,26.4040,-90.7920,25.6,11111222 
ADCP,ioos:station:wmo:42395:1,2016-05-12T01:00:00Z,26.4040,-90.7920,25.5,11111222 
ADCP,ioos:station:wmo:42395:1,2016-05-12T01:20:00Z,26.4040,-90.7920,25.8,11111222 
ADCP,ioos:station:wmo:42395:1,2016-05-12T01:40:00Z,26.4040,-90.7920,27.1,11111222 
ADCP,ioos:station:wmo:42395:1,2016-05-12T02:00:00Z,26.4040,-90.7920,27.2,11111222 
ADCP,ioos:station:wmo:42395:1,2016-05-12T02:20:00Z,26.4040,-90.7920,27.1,11111222 
ADCP,ioos:station:wmo:42395:1,2016-05-12T02:40:00Z,26.4040,-90.7920,27.4,11111222 
ADCP,ioos:station:wmo:42395:1,2016-05-12T03:00:00Z,26.4040,-90.7920,27.1,11111222 
ADCP,ioos:station:wmo:42395:1,2016-05-12T03:20:00Z,26.4040,-90.7920,25.7,11111222 
ADCP,ioos:station:wmo:42395:1,2016-05-12T03:40:00Z,26.4040,-90.7920,25.6,11111222 
ADCP,ioos:station:wmo:42395:1,2016-05-12T04:00:00Z,26.4040,-90.7920,25.5,11111222 
ADCP,ioos:station:wmo:42395:1,2016-05-12T04:20:00Z,26.4040,-90.7920,25.5,11111222 
ADCP,ioos:station:wmo:42395:1,2016-05-12T04:40:00Z,26.4040,-90.7920,25.5,11111222 
ADCP,ioos:station:wmo:42395:1,2016-05-12T05:00:00Z,26.4040,-90.7920,25.4,11111222 
ADCP,ioos:station:wmo:42395:1,2016-05-12T05:20:00Z,26.4040,-90.7920,25.4,11111222 
ADCP,ioos:station:wmo:42395:1,2016-05-12T05:40:00Z,26.4040,-90.7920,25.4,11111222 
ADCP,ioos:station:wmo:42395:1,2016-05-12T06:00:00Z,26.4040,-90.7920,25.4,11111222 
ADCP,ioos:station:wmo:42395:1,2016-05-12T06:20:00Z,26.4040,-90.7920,25.3,11111222 
ADCP,ioos:station:wmo:42395:1,2016-05-12T06:40:00Z,26.4040,-90.7920,25.3,11111222 
ADCP,ioos:station:wmo:42395:1,2016-05-12T07:00:00Z,26.4040,-90.7920,25.2,11111222 
ADCP,ioos:station:wmo:42395:1,2016-05-12T07:20:00Z,26.4040,-90.7920,25.2,11111222 
ADCP,ioos:station:wmo:42395:1,2016-05-12T07:40:00Z,26.4040,-90.7920,25.2,11111222 
ADCP,ioos:station:wmo:42395:1,2016-05-12T08:00:00Z,26.4040,-90.7920,25.2,11111222 
ADCP,ioos:station:wmo:42395:1,2016-05-12T08:20:00Z,26.4040,-90.7920,25.2,11111222 
ADCP,ioos:station:wmo:42395:1,2016-05-12T08:40:00Z,26.4040,-90.7920,25.2,11111222 
ADCP,ioos:station:wmo:42395:1,2016-05-12T09:00:00Z,26.4040,-90.7920,25.2,11111222 
ADCP,ioos:station:wmo:42395:1,2016-05-12T09:20:00Z,26.4040,-90.7920,25.1,11111222 
ADCP,ioos:station:wmo:42395:1,2016-05-12T09:40:00Z,26.4040,-90.7920,25.1,11111222 
ADCP,ioos:station:wmo:42395:1,2016-05-12T10:00:00Z,26.4040,-90.7920,25.1,11111222 
ADCP,ioos:station:wmo:42395:1,2016-05-12T10:20:00Z,26.4040,-90.7920,25.0,11111222 
ADCP,ioos:station:wmo:42395:1,2016-05-12T10:40:00Z,26.4040,-90.7920,25.0,11111222 
ADCP,ioos:station:wmo:42395:1,2016-05-12T11:00:00Z,26.4040,-90.7920,25.0,11111222 
ADCP,ioos:station:wmo:42395:1,2016-05-12T11:20:00Z,26.4040,-90.7920,25.0,11111222 
ADCP,ioos:station:wmo:42395:1,2016-05-12T11:40:00Z,26.4040,-90.7920,25.0,11111222 
ADCP,ioos:station:wmo:42395:1,2016-05-12T12:00:00Z,26.4040,-90.7920,25.0,11111222 
ADCP,ioos:station:wmo:42395:1,2016-05-12T12:20:00Z,26.4040,-90.7920,25.1,11111222 
ADCP,ioos:station:wmo:42395:1,2016-05-12T12:40:00Z,26.4040,-90.7920,25.4,11111222 
ADCP,ioos:station:wmo:42395:1,2016-05-12T13:00:00Z,26.4040,-90.7920,25.4,11111222 
ADCP,ioos:station:wmo:42395:1,2016-05-12T13:20:00Z,26.4040,-90.7920,25.3,11111222 
ADCP,ioos:station:wmo:42395:1,2016-05-12T13:40:00Z,26.4040,-90.7920,25.3,11111222 
ADCP,ioos:station:wmo:42395:1,2016-05-12T14:00:00Z,26.4040,-90.7920,25.4,11111222 
ADCP,ioos:station:wmo:42395:1,2016-05-12T14:20:00Z,26.4040,-90.7920,25.6,11111222 
ADCP,ioos:station:wmo:42395:1,2016-05-12T14:40:00Z,26.4040,-90.7920,25.6,11111222 
ADCP,ioos:station:wmo:42395:1,2016-05-12T15:00:00Z,26.4040,-90.7920,25.7,11111222 
ADCP,ioos:station:wmo:42395:1,2016-05-12T15:20:00Z,26.4040,-90.7920,25.9,11111222 
ADCP,ioos:station:wmo:42395:1,2016-05-13T15:20:00Z,26.4040,-90.7920,24.8,11111222 
ADCP,ioos:station:wmo:42395:1,2016-05-19T16:00:00Z,26.4040,-90.7920,26.9,11111222 
ADCP,ioos:station:wmo:42395:1,2016-05-19T16:20:00Z,26.4040,-90.7920,26.9,11111222 
ADCP,ioos:station:wmo:42395:1,2016-05-19T16:40:00Z,26.4040,-90.7920,26.9,11111222 
ADCP,ioos:station:wmo:42395:1,2016-05-19T17:00:00Z,26.4040,-90.7920,27.0,11111222 
ADCP,ioos:station:wmo:42395:1,2016-05-19T17:20:00Z,26.4040,-90.7920,27.1,11111222 
ADCP,ioos:station:wmo:42395:1,2016-05-19T17:40:00Z,26.4040,-90.7920,27.1,11111222 
ADCP,ioos:station:wmo:42395:1,2016-05-19T18:00:00Z,26.4040,-90.7920,27.1,11111222 
ADCP,ioos:station:wmo:42395:1,2016-05-19T18:20:00Z,26.4040,-90.7920,27.2,11111222 
ADCP,ioos:station:wmo:42395:1,2016-05-19T18:40:00Z,26.4040,-90.7920,27.3,11111222 
ADCP,ioos:station:wmo:42395:1,2016-05-19T19:00:00Z,26.4040,-90.7920,27.3,11111222 
ADCP,ioos:station:wmo:42395:1,2016-05-19T19:20:00Z,26.4040,-90.7920,27.3,11111222 
ADCP,ioos:station:wmo:42395:1,2016-05-19T19:40:00Z,26.4040,-90.7920,27.3,11111222 
ADCP,ioos:station:wmo:42395:1,2016-05-19T20:00:00Z,26.4040,-90.7920,27.3,11111222 
ADCP,ioos:station:wmo:42395:1,2016-05-19T20:20:00Z,26.4040,-90.7920,27.3,11111222 
ADCP,ioos:station:wmo:42395:1,2016-05-19T20:40:00Z,26.4040,-90.7920,27.3,11111222 
ADCP,ioos:station:wmo:42395:1,2016-05-19T21:00:00Z,26.4040,-90.7920,27.3,11111222 
ADCP,ioos:station:wmo:42395:1,2016-05-19T21:20:00Z,26.4040,-90.7920,27.1,11111222 
ADCP,ioos:station:wmo:42395:1,2016-05-19T21:40:00Z,26.4040,-90.7920,27.1,11111222 
ADCP,ioos:station:wmo:42395:1,2016-05-19T22:00:00Z,26.4040,-90.7920,27.0,11111222 
ADCP,ioos:station:wmo:42395:1,2016-05-19T22:20:00Z,26.4040,-90.7920,27.0,11111222 
ADCP,ioos:station:wmo:42395:1,2016-05-19T22:40:00Z,26.4040,-90.7920,27.0,11111222 
ADCP,ioos:station:wmo:42395:1,2016-05-19T23:00:00Z,26.4040,-90.7920,27.0,11111222 
ADCP,ioos:station:wmo:42395:1,2016-05-19T23:20:00Z,26.4040,-90.7920,27.0,11111222 
ADCP,ioos:station:wmo:42395:1,2016-05-19T23:40:00Z,26.4040,-90.7920,27.0,11111222 
ADCP,ioos:station:wmo:42395:1,2016-05-20T00:00:00Z,26.4040,-90.7920,26.9,11111222 
ADCP,ioos:station:wmo:42395:1,2016-05-20T00:20:00Z,26.4040,-90.7920,26.9,11111222 
ADCP,ioos:station:wmo:42395:1,2016-05-20T00:40:00Z,26.4040,-90.7920,26.8,11111222 
ADCP,ioos:station:wmo:42395:1,2016-05-20T01:00:00Z,26.4040,-90.7920,26.8,11111222 
ADCP,ioos:station:wmo:42395:1,2016-05-20T01:20:00Z,26.4040,-90.7920,26.8,11111222 
ADCP,ioos:station:wmo:42395:1,2016-05-20T01:40:00Z,26.4040,-90.7920,26.7,11111222 
ADCP,ioos:station:wmo:42395:1,2016-05-20T02:00:00Z,26.4040,-90.7920,26.7,11111222 
ADCP,ioos:station:wmo:42395:1,2016-05-20T02:20:00Z,26.4040,-90.7920,26.7,11111222 
ADCP,ioos:station:wmo:42395:1,2016-05-20T02:40:00Z,26.4040,-90.7920,26.6,11111222 
ADCP,ioos:station:wmo:42395:1,2016-05-20T03:00:00Z,26.4040,-90.7920,26.6,11111222 
ADCP,ioos:station:wmo:42395:1,2016-05-20T03:20:00Z,26.4040,-90.7920,26.6,11111222 
ADCP,ioos:station:wmo:42395:1,2016-05-20T03:40:00Z,26.4040,-90.7920,26.6,11111222 
ADCP,ioos:station:wmo:42395:1,2016-05-20T04:00:00Z,26.4040,-90.7920,26.6,11111222 
ADCP,ioos:station:wmo:42395:1,2016-05-20T04:20:00Z,26.4040,-90.7920,26.6,11111222 
ADCP,ioos:station:wmo:42395:1,2016-05-20T04:40:00Z,26.4040,-90.7920,26.6,11111222 
ADCP,ioos:station:wmo:42395:1,2016-05-20T05:00:00Z,26.4040,-90.7920,26.6,11111222 
ADCP,ioos:station:wmo:42395:1,2016-05-20T05:20:00Z,26.4040,-90.7920,26.5,11111222 
ADCP,ioos:station:wmo:42395:1,2016-05-20T05:40:00Z,26.4040,-90.7920,26.5,11111222 
ADCP,ioos:station:wmo:42395:1,2016-05-20T06:00:00Z,26.4040,-90.7920,26.5,11111222 
ADCP,ioos:station:wmo:42395:1,2016-05-20T06:20:00Z,26.4040,-90.7920,26.5,11111222 
ADCP,ioos:station:wmo:42395:1,2016-05-20T06:40:00Z,26.4040,-90.7920,26.6,11111222 
ADCP,ioos:station:wmo:42395:1,2016-05-20T07:00:00Z,26.4040,-90.7920,26.5,11111222 
ADCP,ioos:station:wmo:42395:1,2016-05-20T07:20:00Z,26.4040,-90.7920,26.4,11111222 
ADCP,ioos:station:wmo:42395:1,2016-05-20T07:40:00Z,26.4040,-90.7920,26.5,11111222 
ADCP,ioos:station:wmo:42395:1,2016-05-20T08:00:00Z,26.4040,-90.7920,26.5,11111222 
ADCP,ioos:station:wmo:42395:1,2016-05-20T08:20:00Z,26.4040,-90.7920,26.5,11111222 
ADCP,ioos:station:wmo:42395:1,2016-05-20T08:40:00Z,26.4040,-90.7920,26.6,11111222 
ADCP,ioos:station:wmo:42395:1,2016-05-20T09:00:00Z,26.4040,-90.7920,26.6,11111222 
ADCP,ioos:station:wmo:42395:1,2016-05-20T09:20:00Z,26.4040,-90.7920,26.6,11111222 
ADCP,ioos:station:wmo:42395:1,2016-05-20T09:40:00Z,26.4040,-90.7920,26.6,11111222 
ADCP,ioos:station:wmo:42395:1,2016-05-20T10:00:00Z,26.4040,-90.7920,26.6,11111222 
ADCP,ioos:station:wmo:42395:1,2016-05-20T10:20:00Z,26.4040,-90.7920,26.6,11111222 
ADCP,ioos:station:wmo:42395:1,2016-05-20T10:40:00Z,26.4040,-90.7920,26.7,11111222 
ADCP,ioos:station:wmo:42395:1,2016-05-20T11:00:00Z,26.4040,-90.7920,26.7,11111222 
ADCP,ioos:station:wmo:42395:1,2016-05-20T11:20:00Z,26.4040,-90.7920,26.8,11111222 
ADCP,ioos:station:wmo:42395:1,2016-05-20T11:40:00Z,26.4040,-90.7920,26.7,11111222 
ADCP,ioos:station:wmo:42395:1,2016-05-20T12:00:00Z,26.4040,-90.7920,26.8,11111222 
ADCP,ioos:station:wmo:42395:1,2016-05-20T12:20:00Z,26.4040,-90.7920,26.8,11111222 
ADCP,ioos:station:wmo:42395:1,2016-05-20T12:40:00Z,26.4040,-90.7920,26.9,11111222 
ADCP,ioos:station:wmo:42395:1,2016-05-20T13:00:00Z,26.4040,-90.7920,26.8,11111222 
ADCP,ioos:station:wmo:42395:1,2016-05-20T13:20:00Z,26.4040,-90.7920,27.1,11111222 
ADCP,ioos:station:wmo:42395:1,2016-05-20T13:40:00Z,26.4040,-90.7920,27.1,11111222 
ADCP,ioos:station:wmo:42395:1,2016-05-20T14:00:00Z,26.4040,-90.7920,27.2,11111222 
ADCP,ioos:station:wmo:42395:1,2016-05-20T14:20:00Z,26.4040,-90.7920,27.2,11111222 
ADCP,ioos:station:wmo:42395:1,2016-05-20T14:40:00Z,26.4040,-90.7920,27.2,11111222 
ADCP,ioos:station:wmo:42395:1,2016-05-20T15:00:00Z,26.4040,-90.7920,27.2,11111222 
ADCP,ioos:station:wmo:42395:1,2016-05-20T15:20:00Z,26.4040,-90.7920,27.1,11111222 
ADCP,ioos:station:wmo:42395:1,2016-05-20T15:40:00Z,26.4040,-90.7920,27.2,11111222 
ADCP,ioos:station:wmo:42395:1,2016-05-20T16:00:00Z,26.4040,-90.7920,27.2,11111222 
ADCP,ioos:station:wmo:42395:1,2016-05-20T16:20:00Z,26.4040,-90.7920,27.3,11111222 
ADCP,ioos:station:wmo:42395:1,2016-05-20T16:40:00Z,26.4040,-90.7920,27.2,11111222 
ADCP,ioos:station:wmo:42395:1,2016-05-20T17:00:00Z,26.4040,-90.7920,27.2,11111222 
ADCP,ioos:station:wmo:42395:1,2016-05-20T17:20:00Z,26.4040,-90.7920,27.2,11111222 
ADCP,ioos:station:wmo:42395:1,2016-05-20T17:40:00Z,26.4040,-90.7920,27.3,11111222 
ADCP,ioos:station:wmo:42395:1,2016-05-20T18:00:00Z,26.4040,-90.7920,27.3,11111222 
ADCP,ioos:station:wmo:42395:1,2016-05-20T18:20:00Z,26.4040,-90.7920,27.3,11111222 
ADCP,ioos:station:wmo:42395:1,2016-05-20T18:40:00Z,26.4040,-90.7920,27.3,11111222 
ADCP,ioos:station:wmo:42395:1,2016-05-20T19:00:00Z,26.4040,-90.7920,27.3,11111222 
ADCP,ioos:station:wmo:42395:1,2016-05-20T19:20:00Z,26.4040,-90.7920,27.3,11111222 
ADCP,ioos:station:wmo:42395:1,2016-05-20T19:40:00Z,26.4040,-90.7920,27.4,11111222 
ADCP,ioos:station:wmo:42395:1,2016-05-20T20:00:00Z,26.4040,-90.7920,27.4,11111222 
ADCP,ioos:station:wmo:42395:1,2016-05-20T20:20:00Z,26.4040,-90.7920,27.4,11111222 
ADCP,ioos:station:wmo:42395:1,2016-05-20T20:40:00Z,26.4040,-90.7920,27.4,11111222 
ADCP,ioos:station:wmo:42395:1,2016-05-20T21:00:00Z,26.4040,-90.7920,27.4,11111222 
ADCP,ioos:station:wmo:42395:1,2016-05-20T21:20:00Z,26.4040,-90.7920,27.3,11111222 
ADCP,ioos:station:wmo:42395:1,2016-05-20T21:40:00Z,26.4040,-90.7920,27.3,11111222 
ADCP,ioos:station:wmo:42395:1,2016-05-20T22:00:00Z,26.4040,-90.7920,27.2,11111222 
ADCP,ioos:station:wmo:42395:1,2016-05-20T22:20:00Z,26.4040,-90.7920,27.1,11111222 
ADCP,ioos:station:wmo:42395:1,2016-05-20T22:40:00Z,26.4040,-90.7920,27.2,11111222 
ADCP,ioos:station:wmo:42395:1,2016-05-20T23:00:00Z,26.4040,-90.7920,27.2,11111222 
ADCP,ioos:station:wmo:42395:1,2016-05-20T23:20:00Z,26.4040,-90.7920,27.1,11111222 
ADCP,ioos:station:wmo:42395:1,2016-05-20T23:40:00Z,26.4040,-90.7920,27.1,11111222 
ADCP,ioos:station:wmo:42395:1,2016-05-21T00:00:00Z,26.4040,-90.7920,27.0,11111222 
ADCP,ioos:station:wmo:42395:1,2016-05-21T00:20:00Z,26.4040,-90.7920,27.0,11111222 
ADCP,ioos:station:wmo:42395:1,2016-05-21T00:40:00Z,26.4040,-90.7920,27.0,11111222 
ADCP,ioos:station:wmo:42395:1,2016-05-21T01:00:00Z,26.4040,-90.7920,26.9,11111222 
ADCP,ioos:station:wmo:42395:1,2016-05-21T01:20:00Z,26.4040,-90.7920,26.9,11111222 
ADCP,ioos:station:wmo:42395:1,2016-05-21T01:40:00Z,26.4040,-90.7920,26.9,11111222 
ADCP,ioos:station:wmo:42395:1,2016-05-21T02:00:00Z,26.4040,-90.7920,26.8,11111222 
ADCP,ioos:station:wmo:42395:1,2016-05-21T02:20:00Z,26.4040,-90.7920,24.9,11111222 
ADCP,ioos:station:wmo:42395:1,2016-05-21T02:40:00Z,26.4040,-90.7920,25.0,11111222 
ADCP,ioos:station:wmo:42395:1,2016-05-21T03:00:00Z,26.4040,-90.7920,24.8,11111222 
ADCP,ioos:station:wmo:42395:1,2016-05-21T03:20:00Z,26.4040,-90.7920,24.9,11111222 
ADCP,ioos:station:wmo:42395:1,2016-05-21T03:40:00Z,26.4040,-90.7920,25.0,11111222 
ADCP,ioos:station:wmo:42395:1,2016-05-21T04:00:00Z,26.4040,-90.7920,24.8,11111222 
ADCP,ioos:station:wmo:42395:1,2016-05-21T04:20:00Z,26.4040,-90.7920,25.0,11111222 
ADCP,ioos:station:wmo:42395:1,2016-05-21T04:40:00Z,26.4040,-90.7920,25.0,11111222 
ADCP,ioos:station:wmo:42395:1,2016-05-21T05:00:00Z,26.4040,-90.7920,25.2,11111222 
ADCP,ioos:station:wmo:42395:1,2016-05-21T05:20:00Z,26.4040,-90.7920,25.3,11111222 
ADCP,ioos:station:wmo:42395:1,2016-05-21T05:40:00Z,26.4040,-90.7920,25.5,11111222 
ADCP,ioos:station:wmo:42395:1,2016-05-21T06:00:00Z,26.4040,-90.7920,25.7,11111222 
ADCP,ioos:station:wmo:42395:1,2016-05-21T06:20:00Z,26.4040,-90.7920,25.9,11111222 
ADCP,ioos:station:wmo:42395:1,2016-05-21T06:40:00Z,26.4040,-90.7920,26.0,11111222 
ADCP,ioos:station:wmo:42395:1,2016-05-21T07:00:00Z,26.4040,-90.7920,26.2,11111222 
ADCP,ioos:station:wmo:42395:1,2016-05-21T07:20:00Z,26.4040,-90.7920,26.4,11111222 
ADCP,ioos:station:wmo:42395:1,2016-05-21T07:40:00Z,26.4040,-90.7920,26.4,11111222 
ADCP,ioos:station:wmo:42395:1,2016-05-21T08:00:00Z,26.4040,-90.7920,26.6,11111222 
ADCP,ioos:station:wmo:42395:1,2016-05-21T08:20:00Z,26.4040,-90.7920,26.6,11111222 
ADCP,ioos:station:wmo:42395:1,2016-05-21T08:40:00Z,26.4040,-90.7920,26.7,11111222 
ADCP,ioos:station:wmo:42395:1,2016-05-21T09:00:00Z,26.4040,-90.7920,26.8,11111222 
ADCP,ioos:station:wmo:42395:1,2016-05-21T09:20:00Z,26.4040,-90.7920,26.8,11111222 
ADCP,ioos:station:wmo:42395:1,2016-05-21T09:40:00Z,26.4040,-90.7920,26.8,11111222 
ADCP,ioos:station:wmo:42395:1,2016-05-21T10:00:00Z,26.4040,-90.7920,26.8,11111222 
ADCP,ioos:station:wmo:42395:1,2016-05-21T10:20:00Z,26.4040,-90.7920,26.8,11111222 
ADCP,ioos:station:wmo:42395:1,2016-05-21T10:40:00Z,26.4040,-90.7920,26.7,11111222 
ADCP,ioos:station:wmo:42395:1,2016-05-21T11:00:00Z,26.4040,-90.7920,26.6,11111222 
ADCP,ioos:station:wmo:42395:1,2016-05-21T11:20:00Z,26.4040,-90.7920,26.6,11111222 
ADCP,ioos:station:wmo:42395:1,2016-05-21T11:40:00Z,26.4040,-90.7920,26.6,11111222 
ADCP,ioos:station:wmo:42395:1,2016-05-21T12:00:00Z,26.4040,-90.7920,26.6,11111222 
ADCP,ioos:station:wmo:42395:1,2016-05-21T12:20:00Z,26.4040,-90.7920,26.6,11111222 
ADCP,ioos:station:wmo:42395:1,2016-05-21T12:40:00Z,26.4040,-90.7920,26.9,11111222 
ADCP,ioos:station:wmo:42395:1,2016-05-21T13:00:00Z,26.4040,-90.7920,27.1,11111222 
ADCP,ioos:station:wmo:42395:1,2016-05-21T13:20:00Z,26.4040,-90.7920,27.1,11111222 
ADCP,ioos:station:wmo:42395:1,2016-05-21T13:40:00Z,26.4040,-90.7920,27.3,11111222 
ADCP,ioos:station:wmo:42395:1,2016-05-21T14:00:00Z,26.4040,-90.7920,27.3,11111222 
ADCP,ioos:station:wmo:42395:1,2016-05-21T14:20:00Z,26.4040,-90.7920,27.6,11111222 
ADCP,ioos:station:wmo:42395:1,2016-05-21T14:40:00Z,26.4040,-90.7920,27.8,11111222 
ADCP,ioos:station:wmo:42395:1,2016-05-21T15:00:00Z,26.4040,-90.7920,27.5,11111222 
ADCP,ioos:station:wmo:42395:1,2016-05-21T15:20:00Z,26.4040,-90.7920,27.3,11111222 
ADCP,ioos:station:wmo:42395:1,2016-05-21T15:40:00Z,26.4040,-90.7920,27.2,11111222 
ADCP,ioos:station:wmo:42395:1,2016-05-21T16:00:00Z,26.4040,-90.7920,27.2,11111222 
ADCP,ioos:station:wmo:42395:1,2016-05-21T16:20:00Z,26.4040,-90.7920,27.4,11111222 
ADCP,ioos:station:wmo:42395:1,2016-05-21T16:40:00Z,26.4040,-90.7920,27.4,11111222 
ADCP,ioos:station:wmo:42395:1,2016-05-21T17:00:00Z,26.4040,-90.7920,27.5,11111222 
ADCP,ioos:station:wmo:42395:1,2016-05-21T17:20:00Z,26.4040,-90.7920,27.5,11111222 
ADCP,ioos:station:wmo:42395:1,2016-05-21T17:40:00Z,26.4040,-90.7920,27.5,11111222 
ADCP,ioos:station:wmo:42395:1,2016-05-21T18:00:00Z,26.4040,-90.7920,27.5,11111222 
ADCP,ioos:station:wmo:42395:1,2016-05-21T18:20:00Z,26.4040,-90.7920,27.5,11111222 
ADCP,ioos:station:wmo:42395:1,2016-05-21T18:40:00Z,26.4040,-90.7920,27.5,11111222 
ADCP,ioos:station:wmo:42395:1,2016-05-21T19:00:00Z,26.4040,-90.7920,27.4,11111222 
ADCP,ioos:station:wmo:42395:1,2016-05-21T19:20:00Z,26.4040,-90.7920,27.3,11111222 
ADCP,ioos:station:wmo:42395:1,2016-05-21T19:40:00Z,26.4040,-90.7920,27.3,11111222 
ADCP,ioos:station:wmo:42395:1,2016-05-21T20:00:00Z,26.4040,-90.7920,27.3,11111222 
ADCP,ioos:station:wmo:42395:1,2016-05-21T20:20:00Z,26.4040,-90.7920,27.3,11111222 
ADCP,ioos:station:wmo:42395:1,2016-05-21T20:40:00Z,26.4040,-90.7920,27.3,11111222 
ADCP,ioos:station:wmo:42395:1,2016-05-21T21:00:00Z,26.4040,-90.7920,27.3,11111222 
ADCP,ioos:station:wmo:42395:1,2016-05-21T21:20:00Z,26.4040,-90.7920,27.3,11111222 
ADCP,ioos:station:wmo:42395:1,2016-05-21T21:40:00Z,26.4040,-90.7920,27.3,11111222 
ADCP,ioos:station:wmo:42395:1,2016-05-21T22:00:00Z,26.4040,-90.7920,27.2,11111222 
ADCP,ioos:station:wmo:42395:1,2016-05-21T22:20:00Z,26.4040,-90.7920,27.3,11111222 
ADCP,ioos:station:wmo:42395:1,2016-05-21T22:40:00Z,26.4040,-90.7920,27.3,11111222 
ADCP,ioos:station:wmo:42395:1,2016-05-21T23:00:00Z,26.4040,-90.7920,27.3,11111222 
ADCP,ioos:station:wmo:42395:1,2016-05-21T23:20:00Z,26.4040,-90.7920,27.2,11111222 
ADCP,ioos:station:wmo:42395:1,2016-05-21T23:40:00Z,26.4040,-90.7920,27.1,11111222 
ADCP,ioos:station:wmo:42395:1,2016-05-22T00:00:00Z,26.4040,-90.7920,27.1,11111222 
ADCP,ioos:station:wmo:42395:1,2016-05-22T00:20:00Z,26.4040,-90.7920,27.0,11111222 
ADCP,ioos:station:wmo:42395:1,2016-05-22T00:40:00Z,26.4040,-90.7920,26.9,11111222 
ADCP,ioos:station:wmo:42395:1,2016-05-22T01:00:00Z,26.4040,-90.7920,26.9,11111222 
ADCP,ioos:station:wmo:42395:1,2016-05-22T01:20:00Z,26.4040,-90.7920,26.9,11111222 
ADCP,ioos:station:wmo:42395:1,2016-05-22T01:40:00Z,26.4040,-90.7920,26.8,11111222 
ADCP,ioos:station:wmo:42395:1,2016-05-22T02:00:00Z,26.4040,-90.7920,26.8,11111222 
ADCP,ioos:station:wmo:42395:1,2016-05-22T02:20:00Z,26.4040,-90.7920,26.8,11111222 
ADCP,ioos:station:wmo:42395:1,2016-05-22T02:40:00Z,26.4040,-90.7920,26.8,11111222 
ADCP,ioos:station:wmo:42395:1,2016-05-22T03:00:00Z,26.4040,-90.7920,26.8,11111222 
ADCP,ioos:station:wmo:42395:1,2016-05-22T03:20:00Z,26.4040,-90.7920,26.8,11111222 
ADCP,ioos:station:wmo:42395:1,2016-05-22T03:40:00Z,26.4040,-90.7920,26.8,11111222 
ADCP,ioos:station:wmo:42395:1,2016-05-22T04:00:00Z,26.4040,-90.7920,26.7,11111222 
ADCP,ioos:station:wmo:42395:1,2016-05-22T04:20:00Z,26.4040,-90.7920,26.7,11111222 
ADCP,ioos:station:wmo:42395:1,2016-05-22T04:40:00Z,26.4040,-90.7920,26.6,11111222 
ADCP,ioos:station:wmo:42395:1,2016-05-22T05:00:00Z,26.4040,-90.7920,26.6,11111222 
ADCP,ioos:station:wmo:42395:1,2016-05-22T05:20:00Z,26.4040,-90.7920,26.6,11111222 
ADCP,ioos:station:wmo:42395:1,2016-05-22T05:40:00Z,26.4040,-90.7920,26.5,11111222 
ADCP,ioos:station:wmo:42395:1,2016-05-22T06:00:00Z,26.4040,-90.7920,26.5,11111222 
ADCP,ioos:station:wmo:42395:1,2016-05-22T06:20:00Z,26.4040,-90.7920,26.5,11111222 
ADCP,ioos:station:wmo:42395:1,2016-05-22T06:40:00Z,26.4040,-90.7920,26.5,11111222 
ADCP,ioos:station:wmo:42395:1,2016-05-22T07:00:00Z,26.4040,-90.7920,26.5,11111222 
ADCP,ioos:station:wmo:42395:1,2016-05-22T07:20:00Z,26.4040,-90.7920,26.6,11111222 
ADCP,ioos:station:wmo:42395:1,2016-05-22T07:40:00Z,26.4040,-90.7920,26.5,11111222 
ADCP,ioos:station:wmo:42395:1,2016-05-22T08:00:00Z,26.4040,-90.7920,26.5,11111222 
ADCP,ioos:station:wmo:42395:1,2016-05-22T08:20:00Z,26.4040,-90.7920,26.5,11111222 
ADCP,ioos:station:wmo:42395:1,2016-05-22T08:40:00Z,26.4040,-90.7920,26.6,11111222 
ADCP,ioos:station:wmo:42395:1,2016-05-22T09:00:00Z,26.4040,-90.7920,26.5,11111222 
ADCP,ioos:station:wmo:42395:1,2016-05-22T09:20:00Z,26.4040,-90.7920,26.5,11111222 
ADCP,ioos:station:wmo:42395:1,2016-05-22T09:40:00Z,26.4040,-90.7920,26.5,11111222 
ADCP,ioos:station:wmo:42395:1,2016-05-22T10:00:00Z,26.4040,-90.7920,26.4,11111222 
ADCP,ioos:station:wmo:42395:1,2016-05-22T10:20:00Z,26.4040,-90.7920,26.4,11111222 
ADCP,ioos:station:wmo:42395:1,2016-05-22T10:40:00Z,26.4040,-90.7920,26.4,11111222 
ADCP,ioos:station:wmo:42395:1,2016-05-22T11:00:00Z,26.4040,-90.7920,26.4,11111222 
ADCP,ioos:station:wmo:42395:1,2016-05-22T11:20:00Z,26.4040,-90.7920,26.5,11111222 
ADCP,ioos:station:wmo:42395:1,2016-05-22T11:40:00Z,26.4040,-90.7920,26.5,11111222 
ADCP,ioos:station:wmo:42395:1,2016-05-22T12:00:00Z,26.4040,-90.7920,26.6,11111222 
ADCP,ioos:station:wmo:42395:1,2016-05-22T12:20:00Z,26.4040,-90.7920,26.6,11111222 
ADCP,ioos:station:wmo:42395:1,2016-05-22T12:40:00Z,26.4040,-90.7920,26.8,11111222 
ADCP,ioos:station:wmo:42395:1,2016-05-22T13:00:00Z,26.4040,-90.7920,26.8,11111222 
ADCP,ioos:station:wmo:42395:1,2016-05-22T13:20:00Z,26.4040,-90.7920,26.7,11111222 
ADCP,ioos:station:wmo:42395:1,2016-05-22T13:40:00Z,26.4040,-90.7920,26.7,11111222 
ADCP,ioos:station:wmo:42395:1,2016-05-22T14:00:00Z,26.4040,-90.7920,26.6,11111222 
ADCP,ioos:station:wmo:42395:1,2016-05-22T14:20:00Z,26.4040,-90.7920,26.7,11111222 
ADCP,ioos:station:wmo:42395:1,2016-05-22T14:40:00Z,26.4040,-90.7920,26.8,11111222 
ADCP,ioos:station:wmo:42395:1,2016-05-22T15:00:00Z,26.4040,-90.7920,26.8,11111222 
ADCP,ioos:station:wmo:42395:1,2016-05-22T15:20:00Z,26.4040,-90.7920,26.8,11111222 
ADCP,ioos:station:wmo:42395:1,2016-05-22T15:40:00Z,26.4040,-90.7920,26.8,11111222 
ADCP,ioos:station:wmo:42395:1,2016-05-22T16:00:00Z,26.4040,-90.7920,26.8,11111222 
ADCP,ioos:station:wmo:42395:1,2016-05-22T16:20:00Z,26.4040,-90.7920,26.9,11111222 
ADCP,ioos:station:wmo:42395:1,2016-05-22T16:40:00Z,26.4040,-90.7920,26.8,11111222 
ADCP,ioos:station:wmo:42395:1,2016-05-22T17:00:00Z,26.4040,-90.7920,26.9,11111222 
ADCP,ioos:station:wmo:42395:1,2016-05-22T17:20:00Z,26.4040,-90.7920,26.9,11111222 
ADCP,ioos:station:wmo:42395:1,2016-05-22T17:40:00Z,26.4040,-90.7920,24.4,11111222 
ADCP,ioos:station:wmo:42395:1,2016-05-22T18:00:00Z,26.4040,-90.7920,24.0,11111222 
ADCP,ioos:station:wmo:42395:1,2016-05-22T18:20:00Z,26.4040,-90.7920,23.8,11111222 
ADCP,ioos:station:wmo:42395:1,2016-05-22T18:40:00Z,26.4040,-90.7920,24.1,11111222 
ADCP,ioos:station:wmo:42395:1,2016-05-22T19:00:00Z,26.4040,-90.7920,24.5,11111222 
ADCP,ioos:station:wmo:42395:1,2016-05-22T19:20:00Z,26.4040,-90.7920,24.3,11111222 
ADCP,ioos:station:wmo:42395:1,2016-05-22T19:40:00Z,26.4040,-90.7920,24.5,11111222 
ADCP,ioos:station:wmo:42395:1,2016-05-22T20:00:00Z,26.4040,-90.7920,24.4,11111222 
ADCP,ioos:station:wmo:42395:1,2016-05-22T20:20:00Z,26.4040,-90.7920,24.4,11111222 
ADCP,ioos:station:wmo:42395:1,2016-05-22T20:40:00Z,26.4040,-90.7920,24.1,11111222 
ADCP,ioos:station:wmo:42395:1,2016-05-22T21:00:00Z,26.4040,-90.7920,23.2,11111222 
ADCP,ioos:station:wmo:42395:1,2016-05-22T21:20:00Z,26.4040,-90.7920,22.5,11111222 
ADCP,ioos:station:wmo:42395:1,2016-05-22T21:40:00Z,26.4040,-90.7920,22.2,11111222 
ADCP,ioos:station:wmo:42395:1,2016-05-22T22:00:00Z,26.4040,-90.7920,22.3,11111222 